www.pogodaiklimat.ru

Погода и климат >> Архив погоды >> Беларусь >> Минск


АРХИВ ПОГОДЫ в Минске

Время (UTC), дата Ветер
(напр.,м/с)
 
Видим.   Явления Облачность Т
(С)
Тd
(С)
f
(%)
Тe
(С)
Тes
(С)
Комфортность P
(гПа)
Po
(гПа)
Тmin
(С)
Tmax
(С)
R
(мм)
R24
(мм)
S
(см)
09 19.09 Ю 2 21 км 6/0
[Ci fib]
+22.4 +14.3 60 +26 +32 жарко 1019.1 993.1
12 19.09 Ю 2 20 км 6/0
[Ci fib]
+24.9 +11.9 44 +26 +32 жарко 1018.0 992.3
15 19.09 Ю 3 22 км 6/0
[Ci fib]
+24.5 +13.0 49 +27 +27 жарко 1017.4 991.6
18 19.09 Ю 2 18 км ясно +21.4 +14.1 63 +24 +24 комфорт 1017.7 991.6 +25.8
21 19.09 ЮЗ 5 18 км ясно +19.3 +13.8 70 +20 +20 тепло 1018.0 991.7
00 20.09 штиль 0 12 км ясно +15.1 +13.4 90 +15 +15 тепло 1018.9 992.1
03 20.09 штиль 0 11 км ясно +13.8 +12.9 94 +13 +13 тепло 1019.4 992.5
06 20.09 штиль 0 12 км 3/0
[Ci fib]
+18.4 +14.4 78 +19 +21 тепло 1019.6 993.2 +13.2
09 20.09 ЮЗ 1 15 км ясно +24.5 +12.0 46 +26 +34 жарко 1019.2 993.4
12 20.09 ЮВ 3 19 км ясно +26.3 +15.3 51 +29 +34 жарко 1018.3 992.7
15 20.09 З 1 19 км 3/0
[Ac trans]
+26.0 +14.8 50 +29 +29 душно 1017.9 992.3
18 20.09 штиль 0 12 км ясно +19.2 +15.5 79 +21 +21 комфорт 1018.9 992.6 +28.1
21 20.09 штиль 0 10 км ясно +16.1 +14.7 91 +16 +16 тепло 1019.2 992.5
00 21.09 штиль 0 10 км ясно +14.5 +14.1 97 +14 +14 тепло 1019.4 992.6
03 21.09 штиль 0 7000 м дымка ясно +13.9 +13.4 97 +13 +13 тепло 1019.5 992.6
06 21.09 штиль 0 8000 м дымка ясно +17.7 +14.2 80 +18 +20 тепло 1019.3 992.8 +13.5
09 21.09 Ю 1 17 км ясно +23.7 +14.1 55 +26 +34 жарко 1018.7 992.8
12 21.09 ЮВ 2 21 км ясно +25.7 +12.8 45 +28 +33 жарко 1017.2 991.6
15 21.09 ЮВ 2 18 км ясно +24.8 +10.1 39 +26 +26 жарко 1015.5 989.8
18 21.09 В 1 16 км ясно +20.9 +11.6 55 +24 +24 комфорт 1014.7 988.6 +27.0
21 21.09 ЮВ 3 17 км ясно +19.5 +12.5 64 +21 +21 комфорт 1013.1 986.9
00 22.09 ЮВ 1 16 км ясно +17.3 +11.9 71 +18 +18 тепло 1012.0 985.6
03 22.09 ЮВ 1 17 км 3/0
[Ac trans]
+16.1 +10.6 70 +17 +17 тепло 1010.6 984.2
06 22.09 Ю 3 20 км 8/0
[Ac trans Ci fib]
+16.2 +10.2 68 +16 +17 тепло 1009.2 982.8 +15.2
09 22.09 З 5
{12}
23 км слабый ливневой дождь 10/10 840 м
[Sc]
+14.7 +11.2 80 +13 +13 тепло 1012.3 985.7
12 22.09 ЮЗ 2
{11}
11 км слабый ливневой дождь 10/10 700 м
[Sc]
+13.2 +9.4 78 +13 +13 по сезону 1014.9 988.0
15 22.09 Ю 3 25 км {ливн. осадки} 10/10 360 м
[Sc]
+11.3 +9.2 87 +9 +9 прохладно 1015.4 988.3
18 22.09 Ю 1 20 км {ливн. осадки} 8/8 540 м
[Sc]
+11.0 +8.8 86 +11 +11 по сезону 1014.5 987.4 +18.8 3
21 22.09 Ю 2 15 км 10/10 600 м
[Sc]
+10.5 +8.7 89 +9 +9 по сезону 1013.9 986.8
00 23.09 ЮЗ 1 18 км 3/0
[Ci fib]
+9.2 +7.5 89 +9 +9 по сезону 1014.1 986.9
03 23.09 Ю 1 13 км 4/4 700 м
[Sc]
+7.9 +6.9 93 +7 +7 по сезону 1014.0 986.6
06 23.09 ЮЗ 1 18 км 4/4 540 м
[Sc]
+9.1 +6.7 85 +8 +9 по сезону 1013.2 986.0 +7.4
09 23.09 Ю 3 30 км 4/4 500 м
[Sc]
+12.6 +7.2 70 +11 +14 по сезону 1012.6 985.7
12 23.09 ЮЗ 6-12
{10}
18 км 8/8 540 м
[Sc]
+13.8 +4.5 53 +12 +12 по сезону 1012.1 985.4
15 23.09 ЮЗ 4
{12}
27 км 8/5 960 м
[Sc Ac trans]
+12.7 +5.7 62 +11 +11 по сезону 1011.8 985.0
18 23.09 Ю 1
{10}
21 км ясно +10.4 +6.4 76 +10 +10 по сезону 1011.0 984.0 +15.0
21 23.09 Ю 1 18 км 9/0
[Ac trans Cs]
+9.2 +7.0 86 +9 +9 по сезону 1010.0 982.9
00 24.09 ЮВ 1 14 км 10/10 500 м
[Sc]
+8.9 +8.0 94 +8 +8 по сезону 1006.7 979.6
03 24.09 В 2 8000 м дождь {ливн. осадки} 10/10 360 м
[Sc]
+8.8 +8.4 97 +7 +7 по сезону 1002.9 975.9
06 24.09 В 1 4200 м слабый ливневой дождь 10/10 270 м
[Cb calv]
+9.1 +8.6 97 +8 +8 по сезону 997.4 970.6 +8.6 12
09 24.09 З 3 8000 м слабый дождь {ливн. осадки} 10/10 240 м
[Frnb Ns]
+8.7 +8.2 97 +6 +6 прохладно 995.9 969.1
12 24.09 З 5-12
{14}
18 км слабый дождь {ливн. осадки} 10/10 300 м
[Frnb Ns]
+8.0 +6.2 88 +4 +4 очень
холодно
1000.8 973.8
15 24.09 З 4-10
{12}
29 км {дождь} 8/8 600 м
[Sc]
+9.3 +6.7 84 +6 +6 холодно 1004.2 977.2
18 24.09 ЮЗ 3 30 км {ливн. осадки, дождь} 8/8 630 м
[Sc]
+8.1 +6.3 88 +5 +5 холодно 1006.8 979.6 +9.7 11
21 24.09 З 3 30 км {ливн. осадки} 8/8 840 м
[Sc]
+7.9 +6.0 88 +5 +5 прохладно 1009.6 982.3
00 25.09 З 3
{10}
29 км {ливн. осадки} 9/9 660 м
[Sc]
+7.5 +5.2 85 +5 +5 по сезону 1011.9 984.5
03 25.09 З 4 26 км 10/9 600 м
[Sc]
+6.4 +4.3 86 +3 +3 прохладно 1013.9 986.4
06 25.09 З 3
{11}
26 км 9/9 750 м
[Sc]
+5.5 +2.9 83 +2 +2 холодно 1016.9 989.2 +5.4 0.4
09 25.09 З 4
{11}
26 км 9/9 630 м
[Sc]
+6.8 +2.9 76 +3 +4 очень
холодно
1019.2 991.6
12 25.09 З 5
{12}
28 км 8/8 960 м
[Sc Ac trans]
+9.8 +0.4 52 +7 +8 холодно 1020.4 993.0
15 25.09 З 3
{12}
30 км {ливн. осадки} 6/5 930 м
[Sc Ac trans Ci fib]
+9.3 +2.3 62 +7 +7 прохладно 1021.7 994.3
18 25.09 З 1
{14}
30 км {ливн. осадки} 3/0
[Ac trans]
+5.4 +2.2 80 +4 +4 холодно 1025.3 997.4 +10.6 0.0
21 25.09 З 3 26 км 3/0
[Ac trans]
+5.0 +2.0 81 +2 +2 холодно 1028.5 1000.4
00 26.09 З 2 28 км 3/3 900 м
[Cu hum]
+4.6 +2.5 86 +2 +2 холодно 1030.1 1001.9
03 26.09 ЮЗ 1 29 км ясно +3.9 +1.8 86 +2 +2 холодно 1031.3 1003.0
06 26.09 ЮЗ 2 29 км 3/0
[Ci fib]
+5.6 +1.2 73 +3 +4 прохладно 1031.5 1003.4 +3.3

 

Местоположение метеостанции Минск (город Минск, Беларусь): широта 53.93 долгота 27.63 высота над уровнем моря 231 м.

В архиве по умолчанию представлена погода в Минске за последнюю неделю. Архивные данные за месяц целиком и за предыдущие месяцы, начиная с января 2011 года, Вы можете получить, выбрав интересующий диапазон дат из раскрывающегося списка и нажав кнопку "Ввод!".


*Определитесь, кто Вы:
робот инопланетянин человек

Внимание! Время в таблицах - всемирное. Для получения местного времени необходимо прибавить поправку, которая в Минске равна 3 ч.

Смотрите также архив погоды в соседних городах и на ближайших метеорологических станциях:

Погода в Марьиной Горке (Минская область, Беларусь) (63 км)
Погода в Борисове (Минская область, Беларусь) (68 км)
Погода в Воложине (Минская область, Беларусь) (75 км)
Погода в Вилейке (Минская область, Беларусь) (77 км)
Погода в Столбцах (Минская область, Беларусь) (78 км)
Погода в Березино (Минская область, Беларусь) (90 км)
Погода в Слуцке (Минская область, Беларусь) (100 км)
Погода в Березинском Заповеднике (Минская область, Беларусь) (100 км)
Погода в Докшицах (Витебская область, Беларусь) (106 км)
Погода в Кличеве (Могилевская область, Беларусь) (121 км)

Пояснения к столбцам:

Ветер - указаны скорость ветра в м/с - средняя за 10 мин, порывы в срок и между сроками (в фигурных скобках) и направление, откуда дует ветер: С - северный, СВ - северо-восточный, В - восточный, ЮВ - юго-восточный, Ю - южный, ЮЗ - юго-западный, З - западный, СЗ - северо-западный.
Видимость - горизонтальная дальность видимости в метрах или километрах. При видимости от 1 до 10 км при отсутствии осадков обычно наблюдается дымка, при ухудшении видимости до 1 км и менее - туман. В сухую погоду видимость может ухудшаться дымом, пылью или мглою.
Явления - указаны атмосферные явления, наблюдавшиеся в срок или в последний час перед сроком; фигурными скобками обозначены явления, наблюдавшиеся между сроками (за 1-3 часа до срока); квадратными скобками обозначены град или гололедные отложения с указанием их диаметра в мм.
Облачность - указаны через наклонную черту общая и нижняя облачность в баллах и высота нижней границы облаков в метрах; квадратными скобками обозначены формы облаков: Ci - перистые, Cs - перисто-слоистые, Cc - перисто-кучевые, Ac - высококучевые, As - высокослоистые, Sc - слоисто-кучевые, Ns - слоисто-дождевые, Cu - кучевые, Cb - кучево-дождевые. Подробнее классификацию облаков см. в Атласе облаков (PDF).
T - Температура воздуха - температура, измеренная на высоте 2 м над землей.
Td - Температура точки росы - температура, при понижении до которой содержащийся в воздухе водяной пар достигнет насыщения.
f - Относительная влажность воздуха - влажноcть воздуха, измеренная на высоте 2 м над землей.
Te - Эффективная температура - температура, которую ощущает одетый по сезону человек в тени. Характеристика душности погоды. При расчете учитывается влияние влажности воздуха и скорости ветра на теплоощущения человека.
Tes - Эффективная температура на солнце - температура, которую ощущает человек, с поправкой на солнечный нагрев. Характеристика знойности погоды. Зависит от высоты солнца над горизонтом, облачности и скорости ветра. Ночью, в пасмурную погоду, а также при ветре 12 м/с и более поправка равна нулю.
P - Атмосферное давление - приведенное к уровню моря атмосферное давление.
Po - Атмосферное давление - измеренное на уровне метеостанции атмосферное давление.
Tmin - Минимальная температура - минимум температуры воздуха на высоте 2 м над землей.
Tmax - Максимальная температура - максимум температуры воздуха на высоте 2 м над землей.
R - Количество осадков - Количество выпавших осадков за период времени, мм. При наведении курсора мыши на число - период времени, за который выпало указанное количество осадков.
R24 - Количество осадков - Количество выпавших осадков за 24 часа, мм.
S - Снежный покров - Высота снежного покрова, см. При наведении курсора мыши на число - состояние снежного покрова и степень покрытия местности в баллах.